Location: Ladd Observatory
(41.8387°N, 71.3996°W)
Time: 19:38:59
(UTC-05:00)

ISS - Visible Passes

Search period start: 16 December 2017 00:00
Search period end: 26 December 2017 00:00
Orbit: 402 x 406 km, 51.6° (Epoch: 17 December)

Date Brightness Start Highest point End Pass type
(mag) Time Alt. Az. Time Alt. Az. Time Alt. Az.
16 Dec -2.8 17:16:51 10° WNW 17:20:03 48° SW 17:23:13 10° SE visible
17 Dec -0.3 18:02:56 10° WSW 18:03:49 11° SW 18:04:43 10° SW visible
18 Dec -0.9 17:09:14 10° W 17:11:46 20° SW 17:14:16 10° S visible
25 Dec -0.7 06:12:00 10° S 06:14:18 18° SE 06:16:38 10° E visible
